Regional Weather Roundup
Issued by NWS Charleston, SC

Current Version | Previous Version | Graphics & Text | Print | Product List | Glossary On
Versions: 1 2 3 4 5 6 7 8 9 10 11 12 13 14 15 16 17 18 19 20 21 22 23 24 25 26 27 28 29 30 31 32 33 34 35 36 37 38 39 40 41 42 43 44 45 46 47 48 49 50
970 ASUS42 KCHS 171012 RWRCHS REGIONAL WEATHER ROUNDUP NATIONAL WEATHER SERVICE CHARLESTON SC 500 AM EST TUE JAN 17 2017 NOTE: "FAIR" INDICATES FEW OR NO CLOUDS BELOW 12,000 FEET WITH NO SIGNIFICANT WEATHER AND/OR OBSTRUCTIONS TO VISIBILITY. NOT ALL STATIONS ARE QUALITY CONTROLLED. USE DATA WITH CAUTION... ESPECIALLY DEWPOINT OBSERVATIONS. SCZ027-030-031-034>040-042>050-171100- ...SOUTHEAST SOUTH CAROLINA... CITY SKY/WX TMP DP RH WIND PRES REMARKS N CHARLESTON FOG 55 53 93 N5 30.25S VSB 1/4 WATERFRONT PRK N/A 54 54 100 N5 30.24S MOUNT PLEASANT LGT RAIN 54 54 100 CALM 30.25R VSB<1/4 JOHNS ISLAND FOG 55 55 100 CALM 30.25R VSB 1/4 PINOPOLIS NOT AVBL MONCKS CORNER FOG 52 52 100 CALM 30.25S VSB 1/4 SUMMERVILLE FOG N/A N/A N/A CALM 30.26S VSB 1/4 BEAUFORT MCAS FOG 57 56 96 N3 30.24F VSB 3/4 BEAUFORT ARPT FOG 55 55 100 CALM 30.24S VSB 1/2 HILTON HEAD IS FOG 57 57 100 CALM 30.25S VSB 1/4 WALTERBORO FOG 59 N/A N/A CALM 30.26S VSB 1/4 ALLENDALE CLOUDY 59 59 100 CALM 30.24S FOG ...SOUTHERN MIDLANDS AND PEE DEE... CITY SKY/WX TMP DP RH WIND PRES REMARKS GEORGETOWN CLOUDY 50 50 100 CALM 30.25S KINGSTREE FOG 52 50 93 CALM 30.26R VSB 1/4 ORANGEBURG FOG 56 56 100 CALM 30.25S VSB 1/2 BARNWELL CLOUDY 61 61 100 CALM 30.24F AIKEN FOG 54 54 100 CALM 30.28S VSB 1/4 MANNING FOG 52 52 100 CALM 30.25F VSB 1/2 COLUMBIA FOG 54 53 97 E3 30.24S VSB 3/4 SUMTER FOG 52 52 100 CALM 30.23S VSB 3/4 FLORENCE FOG 52 52 100 CALM 30.26S VSB 3/4 MYRTLE BEACH CLOUDY 54 46 76 N5 30.26F N MYRTLE BEACH CLOUDY 48 48 100 N3 30.24F $$ GAZ063-065-086>088-099>101-113>116-118-119-134>141-150-171100- ...SOUTHEAST GEORGIA... CITY SKY/WX TMP DP RH WIND PRES REMARKS SAVANNAH ARPT FOG 58 57 97 CALM 30.24F VSB 1/4 HUNTER AAF FOG 58 58 100 CALM 30.22S VSB 1/2 FORT STEWART FOG 57 57 99 CALM 30.21F VSB 1/4 STATESBORO FOG 58 32 36 S3 30.25R VSB 1/4 SYLVANIA CLOUDY N/A N/A N/A CALM 30.25S FOG CLAXTON FOG N/A N/A N/A CALM 30.25R VSB 1/2 ...CSRA...CENTRAL AND FAR SOUTHEAST GEORGIA... CITY SKY/WX TMP DP RH WIND PRES REMARKS THOMSON CLOUDY 61 61 100 CALM 30.28R AUGUSTA-BUSH NOT AVBL AUGUSTA-DANIEL CLOUDY 59 56 89 S3 30.24F FOG SWAINSBORO CLOUDY 59 59 100 S6 30.24S VIDALIA FOG 59 59 100 SE3 30.24S VSB 1/2 EASTMAN FOG 56 55 97 CALM 30.25S VSB 1/4 HAZLEHURST FOG 59 59 100 S3 30.22S VSB 1 ALMA FOG 59 59 100 SE3 30.22F VSB 1/2 WAYCROSS FOG 61 61 100 SE3 30.23S VSB 1/2 JESUP FOG 59 55 88 CALM 30.24S VSB<1/4 BAXLEY FOG 59 59 100 CALM 30.22F VSB 1/4 BRUNSWICK FOG 59 59 100 CALM 30.24F VSB<1/4 SAINT SIMONS FOG 56 55 97 CALM 30.23F VSB 1/4 $$ SCZ027-028-034-036>038-045-046-048>050-GAZ119-141-171100- ...LAKE AND SUPPLEMENTAL COASTAL OBSERVATIONS... STATION/POSITION TIME TEMP WIND PRES WAVE SWELL AIR SEA DIR/SP/G HT/PER HT/PER/DIR (UTC) (F) (DEG/KT/KT) (MB) (FT/S) (FT/S/D) WINYAH BAY NOT AVBL LAKE MURRAY 0920 53 CALM 1024.0S ACE BASIN NERRS 0845 56 CALM 1024.0 FORT PULASKI 0948 56 340/ 3/ 3 1024.1F SAPELO ISLAND 0900 58 CALM 1024.0 $$ ANZ835-935-AMZ111-154-330-350-352-354-370-450-454-472-171100- ...C-MAN AND BUOY OBSERVATIONS... STATION/POSITION TIME TEMP WIND PRES WAVE SWELL AIR SEA DIR/SP/G HT/PER HT/PER/DIR (UTC) (F) (DEG/KT/KT) (MB) (FT/S) (FT/S/D) BUOY 41004 0850 70 70 130/ 4/ 4 1023.5 3/11 3/120/11 BUOY 41008 0850 58 59 310/ 4/ 4 1023.7 3/ 5 2/ 40/ 5 FOLLY BEACH CMAN 0900 55 340/ 4/ 5 1024.4F CAPERS NEARSHORE 0908 53 54 360/ 4/ 6 1023.9F FRIPP NEARSHORE 0908 56 56 10/ 6/ 6 1023.9F STATION/POSITION TIME TEMP WIND PRES WAVE SWELL AIR SEA DIR/SP/G HT/PER HT/PER/DIR (UTC) (F) (DEG/KT/KT) (MB) (FT/S) (FT/S/D) 5E ST. MARYS GA 0930 61 N/A 2/ 5 FRYING PAN BUOY 0950 70 71 140/ 6/ 8 1023.8F 3/10 3/110/10 BUOY 41025 0950 55 73 360/ 8/ 10 1024.6F 3/ 8 2/110/ 8 CAPE LOOKOUT NC 0900 48 10/ 5/ 5 1024.3F BUOY 41002 0950 71 72 180/ 14/ 16 1024.7F 4/ 9 3/ 60/ 9 BUOY 41010 NOT AVBL ST AUGUSTINE FL 1000 64 64 CALM / 1 1024.5R $$

USA.gov is the U.S. government's official web portal to all federal, state and local government web resources and services.